DW2149 Weather Reports


Display with metric or nautical units.
time (UTC)temp
F
wind
direction
speed
MPH
gust
MPH
rain 1hr
in
rain 24hr
in
rain mn
in
humidity
%
barometer
mb
20260504050638 53 299 0.0 0.0 0.00 0.00 0.00 74 1009.6
20260504050430 53 299 0.0 0.0 0.00 0.00 0.00 74 1009.5
20260504050220 53 299 0.0 0.0 0.00 0.00 0.00 74 1009.5
20260504050018 53 299 0.0 0.0 0.00 0.00 0.00 73 1009.4
20260504045813 54 299 0.0 0.0 0.00 0.00 0.00 73 1009.4
20260504045234 54 299 0.0 0.0 0.00 0.00 0.00 73 1009.4
20260504045032 54 299 0.0 0.0 0.00 0.00 0.00 73 1009.4
20260504044825 54 299 0.0 0.0 0.00 0.00 0.00 73 1009.4
20260504044623 54 299 0.0 0.0 0.00 0.00 0.00 73 1009.3
20260504044414 55 299 0.0 0.0 0.00 0.00 0.00 72 1009.3
20260504044210 55 299 0.0 0.0 0.00 0.00 0.00 72 1009.4
20260504044001 55 299 0.0 0.0 0.00 0.00 0.00 72 1009.3
20260504043755 55 299 0.0 0.0 0.00 0.00 0.00 72 1009.3
20260504043550 55 299 0.0 0.0 0.00 0.00 0.00 72 1009.3
20260504043339 55 299 0.0 0.0 0.00 0.00 0.00 72 1009.3
20260504043129 55 299 0.0 0.0 0.00 0.00 0.00 72 1009.2
20260504042916 56 299 0.0 0.0 0.00 0.00 0.00 72 1009.3
20260504042713 56 299 0.0 0.0 0.00 0.00 0.00 72 1009.3
20260504042502 56 299 0.0 0.0 0.00 0.00 0.00 71 1009.3
20260504042259 56 299 0.0 0.0 0.00 0.00 0.00 71 1009.3
20260504042057 56 299 0.0 0.0 0.00 0.00 0.00 71 1009.3
20260504041847 56 299 0.0 0.0 0.00 0.00 0.00 71 1009.3
20260504041637 56 299 0.0 0.0 0.00 0.00 0.00 71 1009.3
20260504041431 56 299 0.0 0.0 0.00 0.00 0.00 71 1009.2
20260504041219 56 299 0.0 0.0 0.00 0.00 0.00 71 1009.3
20260504041017 56 299 0.0 0.0 0.00 0.00 0.00 71 1009.3
20260504040813 57 299 0.0 0.0 0.00 0.00 0.00 70 1009.5
20260504040601 57 299 0.0 0.0 0.00 0.00 0.00 70 1009.5
20260504040359 57 299 0.0 0.0 0.00 0.00 0.00 70 1009.6
20260504040148 57 299 0.0 0.0 0.00 0.00 0.00 70 1009.6
20260504035940 57 299 0.0 0.0 0.00 0.00 0.00 70 1009.5
20260504035737 57 299 0.0 0.0 0.00 0.00 0.00 70 1009.5
20260504035340 57 299 0.0 0.0 0.00 0.00 0.00 70 1009.5
20260504035137 57 299 0.0 0.0 0.00 0.00 0.00 70 1009.5
20260504034927 57 299 0.0 1.0 0.00 0.00 0.00 70 1009.5
20260504034355 58 298 0.0 0.0 0.00 0.00 0.00 69 1009.5
20260504033823 58 298 0.0 0.0 0.00 0.00 0.00 69 1009.4
20260504033617 58 299 0.0 0.0 0.00 0.00 0.00 69 1009.4
20260504033413 58 298 0.0 0.0 0.00 0.00 0.00 69 1009.4
20260504033205 58 299 0.0 0.0 0.00 0.00 0.00 68 1009.3
20260504032959 58 299 0.0 0.0 0.00 0.00 0.00 68 1009.3
20260504032421 58 299 0.0 2.0 0.00 0.00 0.00 68 1009.1
20260504031840 59 298 0.0 0.0 0.00 0.00 0.00 67 1009.0
20260504031636 59 298 0.0 0.0 0.00 0.00 0.00 67 1008.9
20260504031423 59 298 0.0 0.0 0.00 0.00 0.00 67 1008.9
20260504031218 59 298 0.0 0.0 0.00 0.00 0.00 67 1008.9
20260504031006 59 298 0.0 0.0 0.00 0.00 0.00 67 1008.9
20260504030802 59 298 0.0 2.0 0.00 0.00 0.00 67 1008.9
20260504030554 59 302 0.0 0.0 0.00 0.00 0.00 67 1008.9
20260504030350 59 302 0.0 0.0 0.00 0.00 0.00 67 1008.8
20260504030148 59 302 0.0 0.0 0.00 0.00 0.00 66 1008.8
20260504025752 59 302 0.0 0.0 0.00 0.00 0.00 66 1008.8
20260504025403 60 302 0.0 0.0 0.00 0.00 0.00 66 1008.7
20260504025158 60 302 0.0 0.0 0.00 0.00 0.00 66 1008.6
20260504024954 60 302 0.0 1.0 0.00 0.00 0.00 66 1008.6
20260504024600 60 302 0.0 0.0 0.00 0.00 0.00 65 1008.5
20260504024357 60 302 0.0 2.0 0.00 0.00 0.00 65 1008.5
20260504024148 60 301 0.0 0.0 0.00 0.00 0.00 65 1008.5
20260504023755 60 301 0.0 1.0 0.00 0.00 0.00 65 1008.3
20260504023547 60 308 0.0 1.0 0.00 0.00 0.00 65 1008.3
20260504023344 60 309 0.0 1.0 0.00 0.00 0.00 65 1008.3
20260504023141 61 309 0.0 0.0 0.00 0.00 0.00 65 1008.3
20260504022938 61 309 0.0 3.0 0.00 0.00 0.00 65 1008.3
20260504022549 61 309 0.0 0.0 0.00 0.00 0.00 64 1008.2
20260504022156 61 309 0.0 0.0 0.00 0.00 0.00 64 1008.2
20260504021944 61 308 0.0 4.0 0.00 0.00 0.00 64 1008.1
20260504021733 61 228 0.0 1.0 0.00 0.00 0.00 64 1008.1
20260504021531 61 224 0.0 1.0 0.00 0.00 0.00 64 1008.1
20260504021320 61 224 0.0 0.0 0.00 0.00 0.00 64 1008.0
20260504021113 61 224 0.0 0.0 0.00 0.00 0.00 64 1008.0
20260504020901 62 224 0.0 0.0 0.00 0.00 0.00 63 1008.0
20260504020649 62 224 0.0 0.0 0.00 0.00 0.00 63 1008.0
20260504020447 62 224 0.0 0.0 0.00 0.00 0.00 63 1007.9
20260504020245 62 224 0.0 2.0 0.00 0.00 0.00 63 1007.9
20260504015855 62 225 0.0 2.0 0.00 0.00 0.00 63 1007.8
20260504015645 62 225 0.0 3.0 0.00 0.00 0.00 63 1007.8
20260504015443 62 225 0.0 5.0 0.00 0.00 0.00 63 1007.8
20260504015237 62 216 0.0 5.0 0.00 0.00 0.00 63 1007.8
20260504015028 62 216 0.0 5.0 0.00 0.00 0.00 63 1007.8
20260504014822 62 229 0.0 5.0 0.00 0.00 0.00 62 1007.8
20260504014621 63 240 0.0 5.0 0.00 0.00 0.00 62 1007.8
20260504014409 63 271 0.0 5.0 0.00 0.00 0.00 63 1007.8
20260504014202 63 271 0.0 5.0 0.00 0.00 0.00 62 1007.9
20260504013956 63 271 0.0 5.0 0.00 0.00 0.00 63 1007.8
20260504013752 63 271 0.0 5.0 0.00 0.00 0.00 63 1007.8
20260504013549 63 219 0.0 2.0 0.00 0.00 0.00 63 1007.8
20260504013335 63 214 0.0 0.0 0.00 0.00 0.00 63 1007.7
20260504013126 63 214 0.0 6.0 0.00 0.00 0.00 63 1007.8
20260504012917 63 208 0.0 6.0 0.00 0.00 0.00 63 1007.8
20260504012712 63 208 0.0 6.0 0.00 0.00 0.00 63 1007.9
20260504012502 63 208 0.0 6.0 0.00 0.00 0.00 62 1007.9
20260504012112 63 269 0.0 5.0 0.00 0.00 0.00 62 1007.9
20260504011902 63 269 1.0 5.0 0.00 0.00 0.00 62 1008.0
20260504011651 63 221 1.0 5.0 0.00 0.00 0.00 61 1008.0
20260504011448 63 205 0.0 5.0 0.00 0.00 0.00 61 1008.0
20260504010913 64 292 1.0 2.0 0.00 0.00 0.00 63 1008.1
20260504010709 64 292 1.0 0.0 0.00 0.00 0.00 62 1008.1
20260504005426 63 219 0.0 4.0 0.00 0.00 0.00 63 1008.0
20260504005224 63 273 0.0 4.0 0.00 0.00 0.00 63 1008.0
20260504005021 63 273 0.0 4.0 0.00 0.00 0.00 63 1008.0
20260504004626 63 287 1.0 0.0 0.00 0.00 0.00 63 1008.0
20260504004418 63 287 1.0 6.0 0.00 0.00 0.00 63 1008.0
20260504004214 63 286 1.0 6.0 0.00 0.00 0.00 63 1008.0
20260504004006 63 286 1.0 6.0 0.00 0.00 0.00 63 1008.0
20260504003801 63 323 0.0 5.0 0.00 0.00 0.00 64 1008.0
20260504003548 63 225 0.0 5.0 0.00 0.00 0.00 64 1007.9
20260504003346 63 225 0.0 5.0 0.00 0.00 0.00 64 1007.8
20260504003143 62 225 1.0 5.0 0.00 0.00 0.00 64 1007.8
20260504002749 62 308 0.0 5.0 0.00 0.00 0.00 65 1007.8
20260504002544 62 340 0.0 5.0 0.00 0.00 0.00 64 1007.8
20260504002331 62 313 0.0 4.0 0.00 0.00 0.00 64 1007.7
20260504001942 63 275 0.0 1.0 0.00 0.00 0.00 65 1007.7
20260504001737 63 275 0.0 2.0 0.00 0.00 0.00 64 1007.6
20260504001530 63 275 0.0 2.0 0.00 0.00 0.00 64 1007.6
20260504001319 63 275 0.0 0.0 0.00 0.00 0.00 64 1007.6
20260504000925 63 275 0.0 5.0 0.00 0.00 0.00 64 1007.6
20260504000354 63 257 0.0 0.0 0.00 0.00 0.00 63 1007.6
20260503235957 63 257 0.0 3.0 0.00 0.00 0.00 63 1007.6
20260503235755 63 256 0.0 4.0 0.00 0.00 0.00 63 1007.6
20260503235544 63 257 0.0 4.0 0.00 0.00 0.00 63 1007.6
20260503235154 64 268 0.0 4.0 0.00 0.00 0.00 63 1007.5
20260503234949 64 268 0.0 4.0 0.00 0.00 0.00 63 1007.5
20260503234744 64 267 0.0 4.0 0.00 0.00 0.00 63 1007.5
20260503234539 64 267 0.0 4.0 0.00 0.00 0.00 63 1007.5
20260503234150 64 267 0.0 4.0 0.00 0.00 0.00 63 1007.5
20260503233940 64 267 0.0 4.0 0.00 0.00 0.00 63 1007.5
20260503233733 64 250 0.0 3.0 0.00 0.00 0.00 63 1007.5
20260503233528 64 250 0.0 3.0 0.00 0.00 0.00 63 1007.5
20260503233323 64 245 0.0 3.0 0.00 0.00 0.00 63 1007.5
20260503232931 64 296 1.0 3.0 0.00 0.00 0.00 62 1007.5
20260503232728 64 296 1.0 3.0 0.00 0.00 0.00 63 1007.6
20260503232333 65 258 0.0 3.0 0.00 0.00 0.00 62 1007.6
20260503232119 65 244 0.0 3.0 0.00 0.00 0.00 63 1007.6
20260503231908 65 244 0.0 2.0 0.00 0.00 0.00 62 1007.6
20260503231656 65 244 0.0 3.0 0.00 0.00 0.00 62 1007.6
20260503231446 65 244 0.0 3.0 0.00 0.00 0.00 63 1007.6
20260503231241 65 241 0.0 3.0 0.00 0.00 0.00 62 1007.6
20260503231035 65 242 0.0 3.0 0.00 0.00 0.00 62 1007.5
20260503230830 65 313 0.0 0.0 0.00 0.00 0.00 62 1007.5
20260503230619 65 312 0.0 2.0 0.00 0.00 0.00 62 1007.5
20260503230225 65 97 0.0 0.0 0.00 0.00 0.00 63 1007.5
20260503230016 65 97 0.0 4.0 0.00 0.00 0.00 62 1007.6
20260503225807 65 86 0.0 4.0 0.00 0.00 0.00 61 1007.6
20260503225605 65 222 0.0 4.0 0.00 0.00 0.00 61 1007.7
20260503225400 66 222 0.0 4.0 0.00 0.00 0.00 60 1007.7
20260503225003 66 220 0.0 4.0 0.00 0.00 0.00 60 1007.8
20260503224755 66 220 0.0 4.0 0.00 0.00 0.00 60 1007.7
20260503224407 67 182 0.0 4.0 0.00 0.00 0.00 60 1007.7
20260503224020 67 216 1.0 4.0 0.00 0.00 0.00 61 1007.7
20260503223818 67 170 1.0 4.0 0.00 0.00 0.00 61 1007.5
20260503223611 67 168 1.0 4.0 0.00 0.00 0.00 62 1007.6
20260503223406 67 194 1.0 4.0 0.00 0.00 0.00 62 1007.6
20260503223008 66 169 0.0 4.0 0.00 0.00 0.00 62 1007.6
20260503222613 66 215 0.0 2.0 0.00 0.00 0.00 62 1007.7
20260503222402 66 215 0.0 5.0 0.00 0.00 0.00 60 1007.7
20260503222151 67 215 1.0 5.0 0.00 0.00 0.00 59 1007.8
20260503221938 67 211 1.0 5.0 0.00 0.00 0.00 58 1007.7
20260503221729 67 211 1.0 5.0 0.00 0.00 0.00 58 1007.8
20260503221526 68 223 1.0 6.0 0.00 0.00 0.00 58 1007.8
20260503221316 68 205 1.0 6.0 0.00 0.00 0.00 59 1007.7
20260503221108 68 205 1.0 6.0 0.00 0.00 0.00 60 1007.8
20260503220906 68 205 1.0 6.0 0.00 0.00 0.00 59 1007.7
20260503220659 68 198 1.0 6.0 0.00 0.00 0.00 60 1007.7
20260503220447 68 174 1.0 8.0 0.00 0.00 0.00 61 1007.8
20260503220236 67 203 2.0 8.0 0.00 0.00 0.00 61 1007.8
20260503220024 68 215 2.0 8.0 0.00 0.00 0.00 60 1007.8
20260503215822 68 215 2.0 8.0 0.00 0.00 0.00 60 1007.8
20260503215616 67 198 2.0 8.0 0.00 0.00 0.00 60 1007.7
20260503215225 68 213 2.0 8.0 0.00 0.00 0.00 59 1007.8
20260503215017 68 199 2.0 8.0 0.00 0.00 0.00 59 1007.7
20260503214808 68 196 2.0 8.0 0.00 0.00 0.00 60 1007.8
20260503214412 68 202 1.0 6.0 0.00 0.00 0.00 60 1007.9
20260503214206 68 212 1.0 5.0 0.00 0.00 0.00 60 1007.8
20260503214003 68 212 1.0 5.0 0.00 0.00 0.00 61 1007.8
20260503213756 68 211 1.0 5.0 0.00 0.00 0.00 61 1007.8
20260503213546 68 215 1.0 5.0 0.00 0.00 0.00 61 1007.8
20260503213157 68 217 0.0 4.0 0.00 0.00 0.00 63 1007.8
20260503212945 68 196 0.0 4.0 0.00 0.00 0.00 61 1007.8
20260503212738 68 186 0.0 6.0 0.00 0.00 0.00 63 1007.8
20260503212530 67 212 0.0 6.0 0.00 0.00 0.00 63 1007.9
20260503212320 67 212 1.0 6.0 0.00 0.00 0.00 65 1007.8
20260503212116 67 212 1.0 6.0 0.00 0.00 0.00 65 1007.9
20260503211913 67 215 1.0 6.0 0.00 0.00 0.00 66 1007.9
20260503211701 66 214 2.0 6.0 0.00 0.00 0.00 65 1007.9
20260503211314 66 228 1.0 6.0 0.00 0.00 0.00 64 1007.9
20260503211105 66 202 1.0 6.0 0.00 0.00 0.00 67 1007.9
20260503210903 66 205 1.0 6.0 0.00 0.00 0.00 65 1007.9
20260503210651 66 186 1.0 3.0 0.00 0.00 0.00 65 1008.0
20260503210442 66 187 1.0 3.0 0.00 0.00 0.00 67 1008.0
20260503210233 65 237 1.0 9.0 0.00 0.00 0.00 68 1008.0
20260503210026 65 213 2.0 9.0 0.00 0.00 0.00 65 1008.0
20260503205816 65 210 1.0 9.0 0.00 0.00 0.00 67 1008.0
20260503205424 65 205 2.0 9.0 0.00 0.00 0.00 67 1008.0
20260503205221 65 215 2.0 9.0 0.00 0.00 0.00 68 1008.1
20260503205008 64 242 3.0 9.0 0.00 0.00 0.00 69 1008.1
20260503204800 64 220 3.0 9.0 0.00 0.00 0.00 69 1008.1
20260503204548 64 212 2.0 9.0 0.00 0.00 0.00 70 1008.1
20260503204337 63 217 2.0 9.0 0.00 0.00 0.00 69 1008.1
20260503204136 63 232 2.0 6.0 0.00 0.00 0.00 71 1008.1
20260503203930 63 206 2.0 6.0 0.00 0.00 0.00 70 1008.1
20260503203728 63 209 1.0 5.0 0.00 0.00 0.00 70 1008.1
20260503203515 63 238 1.0 5.0 0.00 0.00 0.00 70 1008.1
20260503203314 64 231 1.0 5.0 0.00 0.00 0.00 69 1008.0
20260503203106 64 209 1.0 5.0 0.00 0.00 0.00 69 1008.1
20260503202858 64 222 1.0 5.0 0.00 0.00 0.00 68 1008.1
20260503202501 64 222 1.0 5.0 0.00 0.00 0.00 68 1008.1
20260503202249 64 219 1.0 5.0 0.00 0.00 0.00 68 1008.1
20260503201900 65 223 0.0 4.0 0.00 0.00 0.00 67 1008.1
20260503201653 65 228 0.0 3.0 0.00 0.00 0.00 67 1008.1
20260503201255 65 231 0.0 6.0 0.00 0.00 0.00 68 1008.1
20260503201046 65 231 1.0 6.0 0.00 0.00 0.00 67 1008.2
20260503200841 65 233 1.0 6.0 0.00 0.00 0.00 67 1008.2
20260503200632 65 246 1.0 6.0 0.00 0.00 0.00 66 1008.2
20260503200425 65 246 1.0 6.0 0.00 0.00 0.00 66 1008.1
20260503200223 65 242 1.0 6.0 0.00 0.00 0.00 66 1008.1
20260503200016 66 238 1.0 6.0 0.00 0.00 0.00 66 1008.2
20260503195808 66 238 1.0 6.0 0.00 0.00 0.00 66 1008.1
20260503195605 66 238 1.0 6.0 0.00 0.00 0.00 66 1008.2
20260503195355 66 237 1.0 6.0 0.00 0.00 0.00 65 1008.1
20260503195143 66 284 1.0 5.0 0.00 0.00 0.00 65 1008.1
20260503194748 67 224 1.0 6.0 0.00 0.00 0.00 64 1008.1
20260503194541 67 180 1.0 6.0 0.00 0.00 0.00 64 1008.1
20260503194330 67 180 2.0 6.0 0.00 0.00 0.00 63 1008.2
20260503194123 68 155 2.0 6.0 0.00 0.00 0.00 62 1008.1
20260503193910 68 211 2.0 8.0 0.00 0.00 0.00 62 1008.1
20260503193704 68 192 2.0 8.0 0.00 0.00 0.00 62 1008.0
20260503193501 69 160 2.0 8.0 0.00 0.00 0.00 60 1008.0
20260503193114 69 165 3.0 8.0 0.00 0.00 0.00 61 1008.0
20260503192912 69 157 3.0 8.0 0.00 0.00 0.00 61 1008.0
20260503192706 70 192 3.0 8.0 0.00 0.00 0.00 58 1008.1
20260503192458 70 234 3.0 8.0 0.00 0.00 0.00 57 1008.1
20260503192247 71 217 3.0 8.0 0.00 0.00 0.00 56 1007.9
20260503192039 71 219 3.0 8.0 0.00 0.00 0.00 57 1007.9
20260503191837 70 236 3.0 8.0 0.00 0.00 0.00 59 1007.8
20260503191631 71 205 3.0 8.0 0.00 0.00 0.00 57 1007.8
20260503191427 71 229 3.0 8.0 0.00 0.00 0.00 58 1007.9
20260503191036 71 227 2.0 8.0 0.00 0.00 0.00 55 1007.8
20260503190825 70 211 3.0 8.0 0.00 0.00 0.00 57 1007.8
20260503190618 70 215 3.0 8.0 0.00 0.00 0.00 56 1007.8
20260503190412 70 217 3.0 8.0 0.00 0.00 0.00 56 1007.8
20260503190203 70 202 2.0 8.0 0.00 0.00 0.00 58 1007.8
20260503190002 70 197 2.0 8.0 0.00 0.00 0.00 56 1007.9
20260503185614 70 221 2.0 6.0 0.00 0.00 0.00 58 1007.9
20260503185401 70 211 2.0 6.0 0.00 0.00 0.00 58 1007.9
20260503185158 69 209 2.0 7.0 0.00 0.00 0.00 60 1008.0
20260503184951 70 234 2.0 7.0 0.00 0.00 0.00 61 1008.0
20260503184750 70 214 2.0 7.0 0.00 0.00 0.00 61 1008.0
20260503184400 70 238 2.0 7.0 0.00 0.00 0.00 61 1008.1
20260503184150 70 208 3.0 7.0 0.00 0.00 0.00 63 1008.1
20260503183945 69 209 3.0 7.0 0.00 0.00 0.00 63 1008.2
20260503183741 69 213 3.0 7.0 0.00 0.00 0.00 62 1008.1
20260503183534 69 215 3.0 7.0 0.00 0.00 0.00 62 1008.1
20260503183331 69 213 3.0 7.0 0.00 0.00 0.00 61 1008.1
20260503183130 69 206 3.0 7.0 0.00 0.00 0.00 61 1008.2
20260503182928 69 221 3.0 7.0 0.00 0.00 0.00 62 1008.1
20260503182726 69 220 3.0 7.0 0.00 0.00 0.00 62 1008.2
20260503182513 69 232 2.0 7.0 0.00 0.00 0.00 61 1008.2
20260503182308 69 211 2.0 7.0 0.00 0.00 0.00 61 1008.2
20260503182102 69 209 1.0 7.0 0.00 0.00 0.00 60 1008.2
20260503181900 69 199 2.0 7.0 0.00 0.00 0.00 61 1008.2
20260503181651 69 198 2.0 7.0 0.00 0.00 0.00 59 1008.2
20260503181439 69 198 2.0 7.0 0.00 0.00 0.00 59 1008.2
20260503181231 69 214 1.0 7.0 0.00 0.00 0.00 58 1008.2
20260503181020 68 214 2.0 7.0 0.00 0.00 0.00 56 1008.2
20260503180809 68 224 1.0 7.0 0.00 0.00 0.00 59 1008.2
20260503180607 68 206 1.0 7.0 0.00 0.00 0.00 58 1008.2
20260503180354 67 206 1.0 7.0 0.00 0.00 0.00 59 1008.2
20260503180146 67 223 1.0 3.0 0.00 0.00 0.00 58 1008.1
20260503175938 67 223 1.0 3.0 0.00 0.00 0.00 58 1008.1
20260503175542 67 225 0.0 4.0 0.00 0.00 0.00 56 1008.1
20260503175329 66 226 0.0 4.0 0.00 0.00 0.00 58 1008.1
20260503175126 66 226 0.0 4.0 0.00 0.00 0.00 58 1008.2
20260503174552 66 227 0.0 3.0 0.00 0.00 0.00 59 1008.2
20260503174154 66 227 0.0 3.0 0.00 0.00 0.00 60 1008.1
20260503173943 66 227 0.0 3.0 0.00 0.00 0.00 61 1008.2
20260503173741 66 227 0.0 3.0 0.00 0.00 0.00 61 1008.1
20260503173539 66 227 0.0 0.0 0.00 0.00 0.00 60 1008.1
20260503173330 66 227 0.0 5.0 0.00 0.00 0.00 61 1008.1
20260503173118 66 227 0.0 5.0 0.00 0.00 0.00 61 1008.1
20260503172908 66 207 0.0 5.0 0.00 0.00 0.00 61 1008.1
20260503172658 65 207 0.0 5.0 0.00 0.00 0.00 61 1008.0
20260503172448 65 207 0.0 5.0 0.00 0.00 0.00 62 1008.0
20260503172101 65 207 0.0 5.0 0.00 0.00 0.00 62 1008.0
20260503171852 65 173 0.0 2.0 0.00 0.00 0.00 62 1008.0
20260503171642 65 135 0.0 2.0 0.00 0.00 0.00 63 1008.0
20260503171436 64 215 0.0 0.0 0.00 0.00 0.00 64 1008.0
20260503171226 64 215 1.0 5.0 0.00 0.00 0.00 63 1008.0
20260503171022 64 215 1.0 5.0 0.00 0.00 0.00 63 1008.0
20260503170809 64 215 2.0 5.0 0.00 0.00 0.00 63 1008.0
20260503170606 63 215 1.0 5.0 0.00 0.00 0.00 62 1008.0
20260503170402 63 214 1.0 5.0 0.00 0.00 0.00 63 1008.0
20260503170149 63 227 0.0 4.0 0.00 0.00 0.00 63 1007.9
20260503160149 55 242 0.0 2.0 0.00 0.00 0.00 82 1007.7
20260503150643 51 199 0.0 0.0 0.00 0.00 0.00 82 1007.5
20260503150442 51 199 0.0 0.0 0.00 0.00 0.00 82 1007.5
20260503140140 50 199 0.0 0.0 0.00 0.00 0.00 81 1007.3
20260503131328 50 199 0.0 0.0 0.00 0.00 0.00 81 1007.1
20260503131125 50 199 0.0 0.0 0.00 0.00 0.00 81 1007.1
20260503130919 50 199 0.0 0.0 0.00 0.00 0.00 81 1007.1
20260503130530 50 199 0.0 0.0 0.00 0.00 0.00 81 1007.1
20260503130319 50 199 0.0 0.0 0.00 0.00 0.00 82 1007.1
20260503130112 50 199 0.0 0.0 0.00 0.00 0.00 82 1007.0
20260503110711 49 199 0.0 0.0 0.00 0.00 0.00 79 1007.3
20260503110505 49 199 0.0 0.0 0.00 0.00 0.00 79 1007.3
20260503110303 49 199 0.0 0.0 0.00 0.00 0.00 79 1007.3
20260503100219 49 199 0.0 0.0 0.00 0.00 0.00 77 1007.4
20260503090138 50 199 0.0 0.0 0.00 0.00 0.00 76 1008.0
20260503081553 51 199 0.0 0.0 0.00 0.00 0.00 74 1008.0
20260503081351 51 199 0.0 0.0 0.00 0.00 0.00 74 1008.0
20260503080955 51 199 0.0 0.0 0.00 0.00 0.00 74 1008.1
20260503080745 52 199 0.0 0.0 0.00 0.00 0.00 74 1008.1
20260503080538 52 199 0.0 0.0 0.00 0.00 0.00 74 1008.0
20260503080330 52 199 0.0 0.0 0.00 0.00 0.00 74 1008.0
20260503080125 52 199 0.0 0.0 0.00 0.00 0.00 74 1008.0
20260503072807 52 199 0.0 0.0 0.00 0.00 0.00 73 1008.1
20260503072559 52 199 0.0 0.0 0.00 0.00 0.00 72 1008.1
20260503072355 52 199 0.0 0.0 0.00 0.00 0.00 72 1008.1
20260503071817 53 199 0.0 0.0 0.00 0.00 0.00 72 1008.1
20260503071606 53 199 0.0 0.0 0.00 0.00 0.00 72 1008.1
20260503071219 53 199 0.0 0.0 0.00 0.00 0.00 72 1008.1
20260503071008 53 199 0.0 0.0 0.00 0.00 0.00 72 1008.1
20260503070757 53 199 0.0 0.0 0.00 0.00 0.00 72 1008.1
20260503070544 53 199 0.0 0.0 0.00 0.00 0.00 72 1008.1
20260503070339 53 199 0.0 0.0 0.00 0.00 0.00 72 1008.2
20260503070127 53 199 0.0 0.0 0.00 0.00 0.00 72 1008.2
20260503060238 55 199 0.0 0.0 0.00 0.00 0.00 70 1008.3
20260503055013 55 199 0.0 0.0 0.00 0.00 0.00 70 1008.4
20260503054801 55 199 0.0 0.0 0.00 0.00 0.00 70 1008.4
20260503054550 55 199 0.0 0.0 0.00 0.00 0.00 70 1008.4
20260503054346 55 199 0.0 0.0 0.00 0.00 0.00 70 1008.4
20260503054135 55 199 0.0 0.0 0.00 0.00 0.00 69 1008.4
20260503053927 55 199 0.0 0.0 0.00 0.00 0.00 69 1008.5
20260503053720 56 199 0.0 0.0 0.00 0.00 0.00 69 1008.5
20260503053334 56 199 0.0 0.0 0.00 0.00 0.00 69 1008.5
20260503053130 56 199 0.0 0.0 0.00 0.00 0.00 69 1008.5
20260503052924 56 199 0.0 0.0 0.00 0.00 0.00 69 1008.5
20260503052714 56 199 0.0 0.0 0.00 0.00 0.00 69 1008.4
20260503052504 56 199 0.0 0.0 0.00 0.00 0.00 69 1008.5
20260503052251 56 199 0.0 0.0 0.00 0.00 0.00 69 1008.4
20260503052043 56 199 0.0 0.0 0.00 0.00 0.00 70 1008.5
20260503051837 56 199 0.0 0.0 0.00 0.00 0.00 70 1008.5
20260503051631 56 199 0.0 0.0 0.00 0.00 0.00 70 1008.5
20260503051422 56 199 0.0 0.0 0.00 0.00 0.00 70 1008.5